Station 46072 (LLNR 27510) - CENTRAL ALEUTIANS 230 NM SW Dutch Harbor Image indicating link to RSS feed of recent meteorological observations for station 46072


Conditions at 46072 as of
(4:40 pm HAST on 07/22/2024)
0240 GMT on 07/23/2024:
     

Click on the graph icon in the table below to see a time series plot of the last five days of that observation.

5-day plot - Wind Direction Wind Direction (WDIR):SSW ( 200 deg true )
5-day plot - Wind Speed Wind Speed (WSPD): 11.7 kts
5-day plot - Wind Gust Wind Gust (GST): 15.5 kts
5-day plot - Atmospheric Pressure Atmospheric Pressure (PRES):29.87 in
5-day plot - Air Temperature Air Temperature (ATMP): 50.2 °F
5-day plot - Water Temperature Water Temperature (WTMP): 50.9 °F
5-day plot - Dew Point Dew Point (DEWP): 49.3 °F
5-day plot - Wind Chill Wind Chill (CHILL): 45.3 °F
5-day plot - Wind Speed at 10 Meters Wind Speed at 10 meters (WSPD10M): 13.6 kts
5-day plot - Wind Speed at 20 Meters Wind Speed at 20 meters (WSPD20M): 15.5 kts
5-day plot -  Wind Speed, Wind Gust and Atmospheric Pressure Combined plot of Wind Speed, Gust, and Air Pressure
Supplemental Measurements
Lowest 1-minute Pressure
Time (HAST)Pressure
4:40 pm29.87 in
Highest 1-minute Wind Speed
Time (HAST)5-day plot - 1-Minute Wind Speed WSPD 5-day plot - 1-Minute Wind Direction WDIR
4:37 pm 13.6 ktsSSW ( 200 deg true )
Previous observations
TIME
(HAST)
5-day plot - Wind Direction
WDIR
 
5-day plot - Wind Speed
WSPD
kts
5-day plot - Wind Gust
GST
kts
5-day plot - Wave Height
WVHT
ft
5-day plot - Dominant Wave Period
DPD
sec
5-day plot - Average Wave Period
APD
sec
5-day plot - Mean Wave Direction
MWD
 
5-day plot - Atmospheric Pressure
PRES
in
5-day plot - Pressure Tendency
PTDY
in
5-day plot - Air Temperature
ATMP
°F
5-day plot - Water Temperature
WTMP
°F
5-day plot - Dew Point
DEWP
°F
5-day plot - Salinity
SAL
psu
5-day plot - Visibility
VIS
nmi
5-day plot - Tide (above MLLW)
TIDE
ft
2024-07-22 04:30 pmSSW 13.6 15.5----29.87- 50.2 50.7 49.5---
2024-07-22 04:20 pmSSW 13.6 15.5 4.6 85.7SSW29.87- 50.2 50.5 49.5---
2024-07-22 04:10 pm S 11.7 15.5 4.6-5.7SSW29.87- 50.2 50.5 49.5---
2024-07-22 04:00 pm S 11.7 13.6----29.87+0.00 50.2 50.5 49.5---
2024-07-22 03:50 pm S 11.7 13.6 4.3 85.5SSW29.87- 50.0 50.4 49.3---
2024-07-22 03:40 pm S 11.7 13.6----29.87- 50.2 50.2 49.5---
2024-07-22 03:30 pm S 11.7 13.6----29.87- 50.2 50.2 49.5---
2024-07-22 03:20 pm S 11.7 13.6 4.6 85.8 SW29.87- 50.0 50.0 49.3---
2024-07-22 03:10 pm S 11.7 13.6 4.6-5.8 SW29.87- 50.0 50.0 49.3---
2024-07-22 03:00 pm S 11.7 13.6----29.87+0.00 49.8 49.8 49.1---
2024-07-22 02:50 pm S 11.7 13.6 4.6 85.7SSW29.87- 49.8 49.8 49.1---
2024-07-22 02:40 pm S 11.7 13.6----29.87- 49.8 49.8 49.1---
2024-07-22 02:30 pm S 11.7 13.6----29.87- 49.8 49.8 49.1---
2024-07-22 02:20 pm S 11.7 13.6 5.2 86.0SSW29.87- 49.8 50.0 49.1---
2024-07-22 02:10 pm S 11.7 13.6 5.2-6.0SSW29.87- 49.8 50.2 49.1---
2024-07-22 02:00 pm S 11.7 15.5----29.88+0.00 50.0 50.4 49.3---
2024-07-22 01:50 pm S 11.7 13.6 4.6 85.9 SW29.88- 50.0 50.4 49.3---
2024-07-22 01:40 pm S 11.7 13.6----29.88- 50.2 50.4 49.5---
2024-07-22 01:10 pm S 9.7 13.6 4.6-5.9SSW29.87- 50.2 50.7 49.5---
2024-07-22 01:00 pm S 11.7 13.6----29.87+0.00 50.2 50.7 49.5---
2024-07-22 12:50 pm S 11.7 13.6 4.6 85.8SSW29.87- 50.2 50.7 49.5---
2024-07-22 12:40 pm S 11.7 13.6----29.87- 50.2 50.7 49.5---
2024-07-22 12:30 pm S 11.7 13.6----29.87- 50.2 50.7 49.5---
2024-07-22 12:20 pm S 11.7 15.5 4.6 85.8SSW29.87- 50.2 50.9 49.5---
2024-07-22 12:10 pm S 11.7 13.6 4.6-5.8SSW29.87- 50.2 50.9 49.5---
2024-07-22 12:00 pm S 9.7 13.6----29.87+0.00 50.0 50.9 49.3---
2024-07-22 11:50 am S 11.7 13.6 4.9 85.8 SW29.87- 50.0 50.9 49.3---
2024-07-22 11:40 am S 11.7 13.6 4.9-5.8 SW29.87- 50.0 50.9 49.3---
2024-07-22 11:30 am S 11.7 13.6----29.87- 50.2 51.1 49.5---
2024-07-22 11:20 am S 11.7 13.6 4.9 85.7SSW29.87- 50.2 51.1 49.5---
2024-07-22 11:10 am S 11.7 13.6 4.9-5.7SSW29.87- 50.0 51.1 49.3---
2024-07-22 11:00 am S 13.6 15.5----29.87+0.00 50.0 51.1 49.3---
2024-07-22 10:50 am S 13.6 15.5 4.9 85.7SSW29.87- 50.0 51.1 49.3---
2024-07-22 10:40 am S 13.6 15.5 4.9-5.7SSW29.87- 50.0 51.1 49.3---
2024-07-22 10:30 am S 11.7 13.6----29.87- 50.0 51.1 49.3---
2024-07-22 10:20 am S 11.7 13.6 4.9 85.8 SW29.88- 50.0 51.1 49.3---
2024-07-22 10:10 am S 11.7 13.6 4.9-5.8 SW29.87- 50.0 51.1 49.3---
2024-07-22 10:00 am S 11.7 15.5----29.88+0.00 50.0 51.1 49.3---
2024-07-22 09:50 am S 11.7 15.5 4.9 85.9SSW29.88- 49.8 51.1 49.1---
2024-07-22 09:40 am S 13.6 15.5----29.87- 49.8 51.1 49.1---
2024-07-22 09:30 am S 13.6 15.5----29.87- 49.6 51.1 48.9---
2024-07-22 09:20 am S 13.6 15.5 4.9 85.8SSW29.87- 49.6 51.1 48.9---
2024-07-22 09:10 am S 11.7 13.6 4.9-5.8SSW29.88- 49.5 51.1 48.7---
2024-07-22 09:00 am S 11.7 13.6----29.87+0.01 49.3 51.1 48.6---
2024-07-22 08:50 am S 11.7 13.6 5.2 86.0 SW29.88- 49.3 51.1 48.6---
2024-07-22 08:40 am S 11.7 13.6 5.2-6.0 SW29.88- 49.3 51.1 48.6---
2024-07-22 08:30 am S 11.7 13.6----29.88- 49.5 51.1 48.7---
2024-07-22 08:20 am S 11.7 13.6 5.2 85.9SSW29.88- 49.5 51.1 48.7---
2024-07-22 08:10 am S 11.7 13.6 5.2-5.9SSW29.88- 49.5 51.1 48.7---
2024-07-22 08:00 am S 11.7 13.6----29.88+0.01 49.5 51.1 48.7---
2024-07-22 07:50 am S 11.7 13.6 5.6 86.1SSW29.88- 49.5- 48.7---
2024-07-22 07:40 am S 11.7 13.6 5.6-6.1SSW29.88- 49.3 51.1 48.6---
2024-07-22 07:30 am S 11.7 13.6----29.87- 49.3 51.1 48.6---
2024-07-22 07:20 am S 11.7 13.6 5.2 86.0 SW29.87- 49.3 51.1 48.6---
2024-07-22 07:10 am S 11.7 13.6 5.2-6.0 SW29.87- 49.5 50.9 48.7---
2024-07-22 07:00 am S 9.7 11.7----29.87+0.00 49.5 50.9 48.7---
2024-07-22 06:50 am S 9.7 13.6 5.6 86.1 SW29.87- 49.5 50.9 48.7---
2024-07-22 06:40 am S 11.7 13.6 5.6-6.1 SW29.87- 49.5 51.1 48.7---
2024-07-22 06:30 am S 11.7 13.6----29.87- 49.5 51.1 48.7---
2024-07-22 06:20 am S 11.7 13.6 5.6 86.0WSW29.86- 49.5 51.1 48.7---
2024-07-22 06:10 am S 11.7 13.6 5.6-6.0WSW29.86- 49.5 51.1 48.7---
2024-07-22 06:00 am S 11.7 13.6----29.86+0.00 49.5 51.1 48.7---
2024-07-22 05:50 amSSW 9.7 13.6 5.2 85.9 SW29.86- 49.5 51.1 48.7---
2024-07-22 05:40 amSSW 11.7 13.6----29.86- 49.3 51.1 48.6---
2024-07-22 05:30 amSSW 11.7 13.6----29.86- 49.3 51.1 48.6---
2024-07-22 05:20 amSSW 11.7 13.6 5.9 86.1 SW29.86- 49.3 51.1 48.6---
2024-07-22 05:10 amSSW 11.7 13.6----29.86- 49.3 51.1 48.6---
2024-07-22 05:00 am S 13.6 15.5----29.86-0.01 49.3 51.1 48.6---
2024-07-22 04:50 am S 13.6 13.6 5.6 85.9 SW29.86- 49.3 51.1 48.6---
2024-07-22 04:40 am S 13.6 15.5 5.6-5.9 SW29.86- 49.5 51.1 48.7---
2024-07-22 04:30 am S 13.6 15.5----29.86- 49.5 51.1 48.7---
2024-07-22 04:20 am S 13.6 15.5 5.2 85.8 SW29.86- 49.5 51.1 48.7---
2024-07-22 04:10 am S 11.7 15.5 5.2-5.8 SW29.86- 49.5 51.1 48.7---
2024-07-22 04:00 am S 11.7 15.5----29.86-0.02 49.5 51.1 48.7---
2024-07-22 03:50 am S 13.6 15.5 5.9 86.1 SW29.86- 49.5 51.1 48.7---
2024-07-22 03:40 am S 13.6 15.5 5.9-6.1 SW29.86- 49.5 51.1 48.7---
2024-07-22 03:30 am S 11.7 15.5----29.86- 49.6 51.1 48.9---
2024-07-22 03:20 am S 11.7 15.5 5.9 86.1 SW29.87- 49.6 51.1 48.9---
2024-07-22 03:10 am S 11.7 15.5 5.9-6.1 SW29.87- 49.6 51.1 48.9---
2024-07-22 03:00 am S 11.7 15.5----29.87-0.01 49.6 51.1 48.9---
2024-07-22 02:50 am S 11.7 15.5 5.9 86.1 SW29.87- 49.6 51.1 48.9---
2024-07-22 02:40 am S 11.7 15.5 5.9-6.1 SW29.87- 49.6 51.1 48.9---
2024-07-22 02:30 am S 11.7 15.5----29.88- 49.6 51.1 48.9---
2024-07-22 02:20 am S 13.6 15.5 5.9 86.1 SW29.88- 49.6 51.1 48.9---
2024-07-22 02:10 am S 11.7 15.5 5.9-6.1 SW29.88- 49.6 51.1 48.9---
2024-07-22 02:00 am S 11.7 15.5----29.88+0.00 49.8 51.1 49.1---
2024-07-22 01:50 am S 13.6 15.5 6.6 86.4 SW29.88- 49.8 51.1 49.1---
2024-07-22 01:40 am S 13.6 15.5----29.88- 49.8 51.1 49.1---
2024-07-22 01:30 amSSW 11.7 13.6----29.88- 49.8 51.1 49.1---
2024-07-22 01:20 amSSW 11.7 15.5 5.6 96.2 SW29.88- 49.8 50.9 49.1---
2024-07-22 01:10 amSSW 13.6 15.5----29.88- 49.8 50.9 49.1---
2024-07-22 01:00 amSSW 13.6 15.5----29.88+0.01 49.8 50.9 49.1---
2024-07-22 12:50 amSSW 13.6 15.5 5.9 86.2SSW29.88- 49.8 50.7 49.1---
2024-07-22 12:40 amSSW 13.6 15.5----29.88- 49.8 50.7 49.1---
2024-07-22 12:30 am S 13.6 15.5----29.88- 49.8 50.5 49.1---
2024-07-22 12:20 am S 11.7 15.5 5.9 96.2SSW29.88- 49.8 50.5 49.1---
2024-07-22 12:10 am S 13.6 15.5 5.9-6.2SSW29.88- 49.8 50.5 49.1---
2024-07-22 12:00 am S 13.6 15.5----29.88+0.02 49.6 50.5 48.9---
2024-07-21 11:50 pm S 11.7 13.6 5.9 86.2WSW29.88- 49.6 50.7 48.9---
2024-07-21 11:40 pm S 11.7 13.6 5.9-6.2WSW29.88- 49.8 50.7 49.1---
2024-07-21 11:30 pm S 11.7 13.6----29.88- 49.8 50.7 49.1---
2024-07-21 11:20 pm S 11.7 13.6 5.6 86.1 SW29.88- 49.8 50.7 49.1---
2024-07-21 11:10 pm S 11.7 13.6 5.6-6.1 SW29.88- 49.8 50.7 49.1---
2024-07-21 11:00 pm S 11.7 13.6----29.88+0.02 49.8 50.7 49.1---
2024-07-21 10:50 pm S 11.7 15.5 6.2 86.3 SW29.88- 49.6 50.7 48.9---
2024-07-21 10:40 pm S 11.7 13.6 6.2-6.3 SW29.88- 49.8 50.7 49.1---
2024-07-21 10:30 pmSSW 11.7 15.5----29.88- 49.6 50.7 48.9---
2024-07-21 10:20 pmSSW 13.6 15.5 5.9 86.3 SW29.88- 49.6 50.7 48.9---
2024-07-21 10:10 pmSSW 13.6 17.5 5.9-6.3 SW29.88- 49.8 50.7 49.1---
2024-07-21 10:00 pmSSW 13.6 15.5----29.87+0.01 49.6 50.7 48.9---
2024-07-21 09:50 pmSSW 13.6 15.5 5.9 86.1 SW29.87- 49.8 50.7 49.1---
2024-07-21 09:40 pmSSW 13.6 17.5----29.87- 49.8 50.9 49.1---
2024-07-21 09:30 pmSSW 13.6 15.5----29.86- 49.8 50.9 49.1---
2024-07-21 09:20 pmSSW 11.7 15.5 5.9 96.2 SW29.86- 49.8 50.9 49.1---
2024-07-21 09:10 pmSSW 13.6 15.5 5.9-6.2 SW29.86- 50.0 50.9 49.3---
2024-07-21 09:00 pmSSW 11.7 15.5----29.86+0.00 50.0 50.9 49.3---
2024-07-21 08:50 pmSSW 13.6 15.5 5.9 86.2 SW29.85- 50.0 50.9 49.3---
2024-07-21 08:40 pmSSW 13.6 15.5----29.86- 50.0 50.9 49.3---
2024-07-21 08:30 pmSSW 13.6 15.5----29.86- 50.0 50.9 49.3---
2024-07-21 08:20 pmSSW 13.6 15.5 5.9 96.1 SW29.86- 50.0 50.9 49.3---
2024-07-21 08:10 pmSSW 13.6 15.5----29.86- 50.0 50.9 49.3---
2024-07-21 08:00 pmSSW 13.6 15.5----29.86+0.00 50.0 50.9 49.3---
2024-07-21 07:50 pmSSW 11.7 15.5 6.2 96.2 SW29.86- 50.0 50.9 49.3---
2024-07-21 07:40 pmSSW 11.7 15.5----29.86- 50.0 51.1 49.3---
2024-07-21 07:30 pmSSW 13.6 15.5----29.86- 50.0 51.1 49.3---
2024-07-21 07:20 pmSSW 13.6 15.5 5.9 96.0WSW29.86- 50.0 51.1 49.3---
2024-07-21 07:10 pmSSW 11.7 15.5 5.9-6.0WSW29.86- 50.0 51.1 49.3---
2024-07-21 07:00 pmSSW 13.6 15.5----29.86+0.00 50.0 51.1 49.3---
2024-07-21 06:50 pmSSW 13.6 17.5 5.9 85.9 SW29.86- 50.0 51.1 49.3---
2024-07-21 06:40 pmSSW 13.6 17.5 5.9-5.9 SW29.85- 50.0 51.1 49.3---
2024-07-21 06:30 pmSSW 13.6 15.5----29.85- 50.0 51.1 49.3---
2024-07-21 06:20 pmSSW 13.6 15.5 5.9 96.0 SW29.85- 49.8 51.1 49.1---
2024-07-21 06:10 pmSSW 13.6 17.5 5.9-6.0 SW29.85- 49.8 51.1 49.1---
2024-07-21 06:00 pmSSW 13.6 17.5----29.85+0.00 49.8 51.1 49.1---
2024-07-21 05:50 pmSSW 13.6 17.5 6.2 86.3 SW29.85- 50.0 50.9 49.3---
2024-07-21 05:40 pmSSW 13.6 15.5----29.85- 50.0- 49.3---
2024-07-21 05:30 pmSSW 11.7 15.5----29.85- 50.0 50.9 49.3---
2024-07-21 05:20 pmSSW 13.6 15.5 5.9 86.0 SW29.85- 50.0 50.9 49.3---
2024-07-21 05:10 pmSSW 15.5 17.5 5.9-6.0 SW29.85- 49.8 50.9 49.1---
2024-07-21 05:00 pmSSW 13.6 19.4----29.85-0.01 50.0 50.9 49.3---
2024-07-21 04:50 pmSSW 13.6 17.5 5.9 86.0 SW29.85- 50.0 50.9 49.3---

Detailed Wave Summary
for 46072 as of
(4:10 pm HAST on 07/22/2024)
0210 GMT on 07/23/2024:

These wave data are displayed in rounded times.

     

Click on the graph icon in the table below to see a time series plot of the last five days of that observation.

5-day plot - Significant Wave Height Significant Wave Height (WVHT): 4.6 ft
5-day plot - Swell Height Swell Height (SwH): 3.6 ft
5-day plot - Swell Period Swell Period (SwP): 7.7 sec
5-day plot - Swell Direction Swell Direction (SwD):SSW
5-day plot - Wind Wave Height Wind Wave Height (WWH): 2.6 ft
5-day plot - Wind Wave Period Wind Wave Period (WWP): 5.6 sec
5-day plot - Wind Wave Direction Wind Wave Direction (WWD): SW
5-day plot - Wave Steepness Wave Steepness (STEEPNESS): AVERAGE
5-day plot - Average Wave Period Average Wave Period (APD): 5.7 sec
Previous observations
TIME
(HAST)
5-day plot - Wave Height
WVHT
ft
5-day plot - Swell Height
SwH
ft
5-day plot - Swell Period
SwP
sec
5-day plot - Swell Direction
SwD
 
5-day plot - Wind Wave Height
WWH
ft
5-day plot - Wind Wave Period
WWP
sec
5-day plot - Wind Wave Direction
WWD
 
5-day plot - Wave Steepness
STEEPNESS
 
5-day plot - Average Wave Period
APD
sec
2024-07-22 03:40 pm 4.3 3.6 8.3SSW 2.3 5.6 SSW AVERAGE 5.5
2024-07-22 03:10 pm 4.6 3.9 7.7 SW 2.6 5.3 SSW AVERAGE 5.8
2024-07-22 02:40 pm 4.6 3.6 7.7SSW 2.3 5.6 SSW AVERAGE 5.7
2024-07-22 02:10 pm 5.2 4.6 8.3SSW 2.3 4.5 SW AVERAGE 6.0
2024-07-22 01:40 pm 4.6 3.9 8.3 SW 2.6 5.9 WSW AVERAGE 5.9
2024-07-22 01:10 pm 4.6 3.9 7.7SSW 2.0 4.8 SSW AVERAGE 5.9
2024-07-22 12:40 pm 4.6 4.3 8.3SSW 2.3 5.0 SW AVERAGE 5.8
2024-07-22 12:10 pm 4.6 3.9 7.7SSW 2.3 5.0 SSW AVERAGE 5.8
2024-07-22 11:40 am 4.9 4.3 7.7 SW 2.6 5.3 S AVERAGE 5.8
2024-07-22 11:10 am 4.9 3.9 8.3SSW 3.0 5.9 SW AVERAGE 5.7
2024-07-22 10:40 am 4.9 3.9 8.3SSW 3.3 5.0 SSW AVERAGE 5.7
2024-07-22 10:10 am 4.9 3.9 8.3 SW 3.0 5.3 S AVERAGE 5.8
2024-07-22 09:40 am 4.9 3.9 8.3SSW 3.0 5.0 SSW AVERAGE 5.9
2024-07-22 09:10 am 4.9 4.6 7.7SSW 2.3 4.8 SW AVERAGE 5.8
2024-07-22 08:40 am 5.2 4.3 7.7 SW 3.0 5.6 SSW AVERAGE 6.0
2024-07-22 08:10 am 5.2 4.3 8.3SSW 3.0 5.3 SW AVERAGE 5.9
2024-07-22 07:40 am 5.6 4.6 8.3SSW 2.6 5.6 SW AVERAGE 6.1
2024-07-22 07:10 am 5.2 4.6 8.3 SW 2.6 5.3 SSW AVERAGE 6.0
2024-07-22 06:40 am 5.6 4.9 7.7 SW 2.3 5.3 SW STEEP 6.1
2024-07-22 06:10 am 5.6 4.9 7.7WSW 2.6 5.0 SSW AVERAGE 6.0
2024-07-22 05:40 am 5.2 4.6 7.7 SW 2.3 4.8 SW AVERAGE 5.9
2024-07-22 05:10 am 5.9 5.2 8.3 SW 3.0 5.3 WSW AVERAGE 6.1
2024-07-22 04:40 am 5.6 4.6 8.3 SW 3.0 5.6 SSW AVERAGE 5.9
2024-07-22 04:10 am 5.2 4.6 8.3 SW 3.0 5.0 SW AVERAGE 5.8
2024-07-22 03:40 am 5.9 4.9 8.3 SW 3.3 5.6 SW AVERAGE 6.1
2024-07-22 03:10 am 5.9 4.9 8.3 SW 3.0 5.6 WSW AVERAGE 6.1
2024-07-22 02:40 am 5.9 5.2 8.3 SW 3.0 5.3 SSW AVERAGE 6.1
2024-07-22 02:10 am 5.9 5.2 8.3 SW 3.0 5.0 SW AVERAGE 6.1
2024-07-22 01:40 am 6.6 5.9 8.3 SW 3.3 5.3 SSW AVERAGE 6.4
2024-07-22 01:10 am 5.6 4.9 9.1 SW 3.0 5.3 S AVERAGE 6.2
2024-07-22 12:40 am 5.9 4.9 8.3SSW 3.0 5.0 SSW AVERAGE 6.2
2024-07-22 12:10 am 5.9 4.9 9.1SSW 3.0 4.8 SSW AVERAGE 6.2
2024-07-21 11:40 pm 5.9 4.9 8.3WSW 3.0 5.6 SSW AVERAGE 6.2
2024-07-21 11:10 pm 5.6 4.9 8.3 SW 3.0 5.6 S AVERAGE 6.1
2024-07-21 10:40 pm 6.2 5.6 8.3 SW 3.0 5.3 SSW AVERAGE 6.3
2024-07-21 10:10 pm 5.9 5.2 8.3 SW 3.0 5.9 S AVERAGE 6.3
2024-07-21 09:40 pm 5.9 4.6 8.3 SW 3.3 5.9 S AVERAGE 6.1
2024-07-21 09:10 pm 5.9 4.9 9.1 SW 3.3 5.9 SSW AVERAGE 6.2
2024-07-21 08:40 pm 5.9 4.9 8.3 SW 3.3 4.8 SSW AVERAGE 6.2
2024-07-21 08:10 pm 5.9 4.9 9.1 SW 3.6 5.6 SSW AVERAGE 6.1
2024-07-21 07:40 pm 6.2 5.6 9.1 SW 3.3 5.9 SSW AVERAGE 6.2
2024-07-21 07:10 pm 5.9 4.9 9.1WSW 3.0 5.3 SW AVERAGE 6.0
2024-07-21 06:40 pm 5.9 4.6 8.3 SW 3.9 6.2 SW AVERAGE 5.9
2024-07-21 06:10 pm 5.9 4.6 9.1 SW 3.6 6.7 SW AVERAGE 6.0
2024-07-21 05:40 pm 6.2 5.2 8.3 SW 3.3 5.3 SSW AVERAGE 6.3
2024-07-21 05:10 pm 5.9 4.6 8.3 SW 3.9 5.9 SW AVERAGE 6.0

Plot of wave energy versus frequency (and period)